Terug naar catalogus

ALOS

ActiefWetenschapSSO
NORAD 28931·PAYLOAD·🇯🇵 Japan

Gelanceerd Jan 24, 2006 vanaf Tanegashima Space Center

Loading…

Volgende Passages (komende 24 uur)

TLE

VersSource: Space-Track

Epoch: Sep 14, 2026, 07:40 UTC

1 28931U 06002A   26257.31967137  .00000990  00000-0  17262-3 0  9999
2 28931  98.1418 212.6573 0002128  74.6747 285.4694 14.70215261101199

Volg ALOS in realtime met AllMySat

Download on the App Store